Flag for Germany Weather past 2 weeks in Mannheim, Baden-Württemberg, Germany

Now
75 °F

Scattered clouds.


Feels Like: 78 °F
Forecast: 57 / 82 °F
Wind: 9 mph from North

Location: Baden Wurttemberg - Neuostheim

Current Time: Jul 25, 2014 at 7:26:35 PM

Latest Report: Jul 25, 2014 at 6:50 PM


Visibility: N/A

Pressure: 29.86 "Hg

Humidity: 57%

Dew point: 59 °F

Location of MannheimLocation

Historic Weather in Mannheim — Graph

°F

Mannheim temperature yesterday

Maximum temperature yesterday: 82 °F (at 4:20 PM)
Minimum temperature yesterday: 64 °F (at 5:50 AM)
Average temperature yesterday: 75 °F

Past Weeks' High & Low Weather Summary

 TemperatureHumidityPressure
High93 °F (Jul 18, 4:50 PM)100% (Jul 11, 5:20 AM)30.18 "Hg (Jul 11, 5:20 AM)
Low59 °F (Jul 11, 5:20 AM)20% (Jul 18, 5:50 PM)29.80 "Hg (Jul 13, 4:20 PM)
Average74 °F61%29.97 "Hg
* Reported Jul 10 6:20 PM — Jul 25 6:20 PM, Mannheim, Weather by CustomWeather, © 2014

Note: Actual official high and low records may vary slightly from our data, if they occured in-between our weather recording intervals... More about our weather records

Advertising

Mannheim weather history for previous 24 hours

 ConditionsComfort  
Time TempWeatherWind HumidityBarometerVisibility
6:20 PM
Jul 25
75 °FPassing clouds.10 mph57%29.86 "HgN/A
5:50 PM75 °FSunny.12 mph54%29.86 "Hg10 mi
5:20 PM73 °FScattered showers. Clear.16 mph61%29.86 "HgN/A
4:50 PM79 °FPassing clouds.5 mph48%29.86 "HgN/A
4:20 PM81 °FSunny.3 mph45%29.86 "Hg10 mi
3:50 PM79 °FSunny.3 mph45%29.86 "Hg10 mi
3:20 PM79 °FSunny.3 mph48%29.89 "Hg10 mi
2:50 PM79 °FSunny.3 mph48%29.89 "Hg10 mi
2:20 PM77 °FSunny.3 mph47%29.89 "Hg10 mi
1:50 PM77 °FSunny.5 mph51%29.89 "Hg10 mi
1:20 PM77 °FSunny.3 mph51%29.89 "Hg10 mi
12:50 PM75 °FSunny.3 mph54%29.92 "Hg10 mi
12:20 PM75 °FSunny.2 mph57%29.92 "Hg10 mi
11:50 AM73 °FSunny.1 mph57%29.92 "Hg10 mi
11:20 AM72 °FSunny.3 mph61%29.95 "Hg10 mi
10:50 AM70 °FSunny.2 mph69%29.95 "Hg10 mi
10:20 AM68 °FSunny.3 mph73%29.95 "Hg10 mi
9:50 AM68 °FSunny.3 mph73%29.95 "Hg10 mi
8:50 AM66 °FPassing clouds.5 mph78%29.95 "HgN/A
8:20 AM66 °FPassing clouds.2 mph78%29.95 "HgN/A
7:50 AM64 °FPassing clouds.1 mph83%29.95 "HgN/A
7:20 AM63 °FPassing clouds.1 mph88%29.95 "HgN/A
6:50 AM61 °FPassing clouds.No wind94%29.92 "HgN/A
6:20 AM61 °FPassing clouds.2 mph94%29.92 "HgN/A
5:50 AM61 °FPassing clouds.5 mph94%29.92 "HgN/A
9:20 PM
Jul 24
72 °FSunny.8 mph57%29.89 "Hg10 mi
8:50 PM72 °FScattered showers. Partly sunny.7 mph61%29.89 "HgN/A
8:20 PM73 °FScattered showers. Clear.7 mph61%29.89 "HgN/A
7:50 PM72 °FScattered showers. Partly sunny.5 mph69%29.89 "HgN/A
7:20 PM72 °FThundershowers. Broken clouds.9 mph69%29.89 "HgN/A
Weather by CustomWeather, © 2014

See weather overviewHow to use our weather pages